Content
SEND FEEDBACK

Daily
Averages
Monthly
Summary
United States of America

LARIMORE, NORTH DAKOTA


Home > North America > United States > North Dakota
Elevation: 1124 feet     Latitude: 47 57N     Longitude: 097 40W

WEATHER
 
SELECT A DAY
Number of Records: 198,189;   Date Range: 1/1/95 - 7/27/14
 
SHARE

PRINT THIS DATA

[ ← Previous Day ]
WEATHER ALMANAC - APRIL 7, 2014
[ Next Day → ]
[ °C ]   °F
Weather ElementAverageHighLow
Temperature37.9 °F46.9 °F (3:53 pm)33.1 °F (4:53 am)
Dewpoint33.7 °F39 °F (4:53 pm)30 °F (4:53 am)
Humidity85.4 %93 % (8:17 pm)68 % (3:53 pm)
Barometer29.88 in29.98 in (11:53 pm)29.79 in (1:53 am)
Wind Speed6.9 mph10.4 mph (5:53 am)
Weather ElementAverage
Visibility9.9 mi
Wind DirectionWNW (286.2 °)

Weather ElementTotal
Precipitation0.02 in
Heating Degree Days25 (Base 65)
Averaged from 29 records on April 7, 2014
WEATHER CONDITIONS BREAKOUT
WIND DIRECTION BREAKOUT
WEATHER BY HOUR - APRIL 7, 2014
[ °C ]   °F
Local TimeTemperatureDewpointHumidityBarometerVisibilityWind DirectionWind SpeedGust SpeedPrecipitationEventsConditions
1:53 AM36.0 °F32.0 °F86 %29.79 in10.0 miWest (280°)8.1 mphMostly Cloudy
2:53 AM36.0 °F32.0 °F86 %29.79 in10.0 miWest (280°)8.1 mphPartly Cloudy
3:53 AM34.0 °F32.0 °F92 %29.80 in10.0 miWNW (290°)5.8 mphClear
4:53 AM33.1 °F30.0 °F89 %29.81 in10.0 miNW (310°)4.6 mphClear
5:53 AM33.1 °F30.0 °F89 %29.83 in10.0 miNW (320°)10.4 mphClear
6:53 AM33.1 °F30.0 °F89 %29.85 in10.0 miNNW (340°)8.1 mphClear
7:53 AM33.1 °F30.0 °F89 %29.87 in10.0 miNNW (330°)6.9 mphClear
8:53 AM36.0 °F32.0 °F86 %29.88 in10.0 miNorth (350°)10.4 mphPartly Cloudy
9:53 AM37.0 °F32.0 °F82 %29.89 in10.0 miNorth (350°)10.4 mphPartly Cloudy
10:53 AM39.0 °F33.1 °F79 %29.90 in10.0 miNorth (350°)10.4 mphPartly Cloudy
11:53 AM41.0 °F35.1 °F79 %29.90 in10.0 miNNW (340°)6.9 mphScattered Clouds
12:53 PM43.0 °F36.0 °F76 %29.90 in10.0 miNorth (360°)6.9 mphScattered Clouds
1:29 PM42.8 °F35.6 °F76 %29.87 in10.0 miNorth (350°)5.8 mphMostly Cloudy
1:53 PM43.0 °F37.0 °F80 %29.90 in10.0 miCalmMostly Cloudy
2:17 PM44.6 °F37.4 °F76 %29.86 in10.0 miNW (320°)4.6 mphMostly Cloudy
2:53 PM45.0 °F37.0 °F74 %29.88 in10.0 miNNW (340°)3.5 mphMostly Cloudy
3:53 PM46.9 °F37.0 °F68 %29.88 in10.0 miWNW (300°)6.9 mphOvercast
4:53 PM46.0 °F39.0 °F76 %29.88 in10.0 miWNW (290°)4.6 mph0.00 inRainLight Rain
5:53 PM41.0 °F37.0 °F86 %29.88 in10.0 miENE (70°)5.8 mph0.00 inOvercast
6:53 PM37.9 °F35.1 °F89 %29.89 in10.0 miNE (40°)9.2 mph0.00 inMostly Cloudy
7:53 PM35.1 °F32.0 °F89 %29.92 in9.0 miNNE (20°)8.1 mphOvercast
8:17 PM35.6 °F33.8 °F93 %29.89 in9.0 miNNW (340°)4.6 mph0.00 inRainLight Rain
8:49 PM35.6 °F33.8 °F93 %29.90 in10.0 miNorth (350°)5.8 mph0.01 inOvercast
8:53 PM35.1 °F33.1 °F92 %29.94 in10.0 miNorth (360°)6.9 mph0.01 inOvercast
9:18 PM35.6 °F33.8 °F93 %29.91 in10.0 miNNW (340°)5.8 mphOvercast
9:53 PM35.1 °F33.1 °F92 %29.96 in9.0 miNNW (330°)6.9 mphOvercast
10:41 PM35.6 °F33.8 °F93 %29.93 in10.0 miNW (310°)8.1 mphScattered Clouds
10:53 PM35.1 °F33.1 °F92 %29.97 in9.0 miNW (310°)8.1 mphPartly Cloudy
11:53 PM34.0 °F32.0 °F92 %29.98 in10.0 miNNW (330°)9.2 mphPartly Cloudy
Hourly data recorded from KGFK, located miles away from Larimore, North Dakota







STORIES FROM OUR PARTNERS